Time,TemperatureF,DewpointF,PressureIn,WindDirection,WindDirectionDegrees,WindSpeedMPH,WindSpeedGustMPH,Humidity,HourlyPrecipIn,Conditions,Clouds,dailyrainin,SoftwareType,DateUTC
2013-01-17 00:05:00,31.6,30.8,29.88,SSE,159,0.0,0.0,97,0.00,,,0.00,Wunderground v.1.15,2013-01-17 05:05:00,
2013-01-17 00:10:00,31.4,30.6,29.88,SSE,159,0.0,0.0,97,0.00,,,0.00,Wunderground v.1.15,2013-01-17 05:10:00,
2013-01-17 00:15:00,31.4,30.6,29.88,SSE,159,0.0,0.0,97,0.00,,,0.00,Wunderground v.1.15,2013-01-17 05:15:00,
2013-01-17 00:20:00,31.4,30.6,29.88,SSE,150,0.0,0.0,97,0.00,,,0.00,Wunderground v.1.15,2013-01-17 05:20:00,
2013-01-17 00:25:00,31.3,30.5,29.88,SSE,150,0.0,0.0,97,0.00,,,0.00,Wunderground v.1.15,2013-01-17 05:25:00,
2013-01-17 00:35:00,31.3,30.5,29.88,SE,134,0.0,1.0,97,0.00,,,0.00,Wunderground v.1.15,2013-01-17 05:35:00,
2013-01-17 00:40:00,31.3,30.5,29.89,SE,134,0.0,0.0,97,0.00,,,0.00,Wunderground v.1.15,2013-01-17 05:40:00,
2013-01-17 00:45:00,31.3,30.5,29.89,SE,134,0.0,0.0,97,0.00,,,0.00,Wunderground v.1.15,2013-01-17 05:45:00,
2013-01-17 00:50:00,31.4,30.6,29.89,SE,134,0.0,0.0,97,0.00,,,0.00,Wunderground v.1.15,2013-01-17 05:50:00,
2013-01-17 01:00:00,31.3,30.5,29.89,SE,134,0.0,0.0,97,0.00,,,0.00,Wunderground v.1.15,2013-01-17 06:00:00,
2013-01-17 01:10:00,31.3,30.5,29.89,SE,132,0.0,0.0,97,0.00,,,0.00,Wunderground v.1.15,2013-01-17 06:10:00,
2013-01-17 01:15:00,31.3,30.5,29.89,SE,133,0.0,0.0,97,0.00,,,0.00,Wunderground v.1.15,2013-01-17 06:15:00,
2013-01-17 01:25:00,31.4,30.6,29.89,East,101,0.0,0.0,97,0.00,,,0.00,Wunderground v.1.15,2013-01-17 06:25:00,
2013-01-17 01:35:00,31.4,30.6,29.88,ESE,105,0.0,1.0,97,0.00,,,0.00,Wunderground v.1.15,2013-01-17 06:35:00,
2013-01-17 01:45:00,31.5,31.0,29.88,ESE,105,0.0,0.0,98,0.00,,,0.00,Wunderground v.1.15,2013-01-17 06:45:00,
2013-01-17 01:50:00,31.4,30.9,29.88,ESE,105,0.0,0.0,98,0.00,,,0.00,Wunderground v.1.15,2013-01-17 06:50:00,
2013-01-17 01:55:00,31.4,30.9,29.88,ESE,105,0.0,0.0,98,0.00,,,0.00,Wunderground v.1.15,2013-01-17 06:55:00,
2013-01-17 02:05:00,31.3,30.5,29.89,ESE,103,0.0,0.0,97,0.00,,,0.00,Wunderground v.1.15,2013-01-17 07:05:00,
2013-01-17 02:10:00,31.2,30.4,29.89,ESE,105,0.0,0.0,97,0.00,,,0.00,Wunderground v.1.15,2013-01-17 07:10:00,
2013-01-17 02:20:00,31.2,30.7,29.90,ESE,105,0.0,0.0,98,0.00,,,0.00,Wunderground v.1.15,2013-01-17 07:20:00,
2013-01-17 02:30:00,31.2,30.4,29.89,ESE,103,0.0,0.0,97,0.00,,,0.00,Wunderground v.1.15,2013-01-17 07:30:00,
2013-01-17 02:40:00,31.1,30.6,29.89,ESE,103,0.0,0.0,98,0.00,,,0.00,Wunderground v.1.15,2013-01-17 07:40:00,
2013-01-17 02:50:00,30.8,30.0,29.89,ESE,103,0.0,0.0,97,0.00,,,0.00,Wunderground v.1.15,2013-01-17 07:50:00,
2013-01-17 03:00:00,30.7,30.2,29.89,ESE,103,0.0,0.0,98,0.00,,,0.00,Wunderground v.1.15,2013-01-17 08:00:00,
2013-01-17 03:10:00,30.6,30.1,29.89,ESE,103,0.0,0.0,98,0.00,,,0.00,Wunderground v.1.15,2013-01-17 08:10:00,
2013-01-17 03:15:00,30.5,30.0,29.89,ESE,103,0.0,0.0,98,0.00,,,0.00,Wunderground v.1.15,2013-01-17 08:15:00,
2013-01-17 03:25:00,30.6,30.1,29.89,ESE,103,0.0,0.0,98,0.00,,,0.00,Wunderground v.1.15,2013-01-17 08:25:00,
2013-01-17 03:35:00,30.8,30.3,29.89,ESE,103,0.0,0.0,98,0.00,,,0.00,Wunderground v.1.15,2013-01-17 08:35:00,
2013-01-17 03:45:00,30.9,30.4,29.89,ESE,103,0.0,0.0,98,0.00,,,0.00,Wunderground v.1.15,2013-01-17 08:45:00,
2013-01-17 03:55:00,30.8,30.3,29.89,ESE,103,0.0,0.0,98,0.00,,,0.00,Wunderground v.1.15,2013-01-17 08:55:00,
2013-01-17 04:00:00,30.8,30.3,29.89,ESE,103,0.0,0.0,98,0.00,,,0.00,Wunderground v.1.15,2013-01-17 09:00:00,
2013-01-17 04:10:00,30.8,30.3,29.90,ESE,107,0.0,0.0,98,0.00,,,0.00,Wunderground v.1.15,2013-01-17 09:10:00,
2013-01-17 04:20:00,30.7,30.2,29.90,ESE,107,0.0,0.0,98,0.00,,,0.00,Wunderground v.1.15,2013-01-17 09:20:00,
2013-01-17 04:30:00,30.9,30.4,29.90,SE,137,0.0,0.0,98,0.00,,,0.00,Wunderground v.1.15,2013-01-17 09:30:00,
2013-01-17 04:35:00,30.8,30.3,29.90,SE,136,0.0,0.0,98,0.00,,,0.00,Wunderground v.1.15,2013-01-17 09:35:00,
2013-01-17 04:45:00,30.6,30.1,29.90,SE,128,0.0,0.0,98,0.00,,,0.00,Wunderground v.1.15,2013-01-17 09:45:00,
2013-01-17 04:55:00,30.4,29.9,29.89,SE,128,0.0,0.0,98,0.00,,,0.00,Wunderground v.1.15,2013-01-17 09:55:00,
2013-01-17 05:05:00,30.4,29.9,29.89,SE,129,0.0,0.0,98,0.00,,,0.00,Wunderground v.1.15,2013-01-17 10:05:00,
2013-01-17 05:15:00,30.3,29.8,29.90,SE,129,0.0,0.0,98,0.00,,,0.00,Wunderground v.1.15,2013-01-17 10:15:00,
2013-01-17 05:25:00,30.4,29.9,29.89,SE,129,0.0,0.0,98,0.00,,,0.00,Wunderground v.1.15,2013-01-17 10:25:00,
2013-01-17 05:35:00,30.4,29.9,29.91,West,278,0.0,1.0,98,0.00,,,0.00,Wunderground v.1.15,2013-01-17 10:35:00,
2013-01-17 05:45:00,30.1,29.6,29.91,WSW,243,0.0,0.0,98,0.00,,,0.00,Wunderground v.1.15,2013-01-17 10:45:00,
2013-01-17 05:55:00,30.1,29.6,29.92,SSE,153,0.0,0.0,98,0.00,,,0.00,Wunderground v.1.15,2013-01-17 10:55:00,
2013-01-17 06:05:00,30.2,29.7,29.93,SSE,152,0.0,1.0,98,0.00,,,0.00,Wunderground v.1.15,2013-01-17 11:05:00,
2013-01-17 06:10:00,30.3,29.8,29.93,SE,135,0.0,0.0,98,0.00,,,0.00,Wunderground v.1.15,2013-01-17 11:10:00,
2013-01-17 06:20:00,30.3,29.8,29.93,SSW,197,0.0,0.0,98,0.00,,,0.00,Wunderground v.1.15,2013-01-17 11:20:00,
2013-01-17 06:30:00,29.8,29.3,29.92,SW,226,0.0,0.0,98,0.00,,,0.00,Wunderground v.1.15,2013-01-17 11:30:00,
2013-01-17 06:40:00,29.9,29.4,29.93,SSW,198,0.0,0.0,98,0.00,,,0.00,Wunderground v.1.15,2013-01-17 11:40:00,
2013-01-17 06:50:00,29.7,29.2,29.93,SE,129,0.0,0.0,98,0.00,,,0.00,Wunderground v.1.15,2013-01-17 11:50:00,
2013-01-17 06:55:00,29.9,29.4,29.94,SE,130,0.0,0.0,98,0.00,,,0.00,Wunderground v.1.15,2013-01-17 11:55:00,
2013-01-17 07:00:00,30.1,29.6,29.94,SE,130,0.0,0.0,98,0.00,,,0.00,Wunderground v.1.15,2013-01-17 12:00:00,
2013-01-17 07:10:00,29.9,29.4,29.94,NW,304,0.0,0.0,98,0.00,,,0.00,Wunderground v.1.15,2013-01-17 12:10:00,
2013-01-17 07:15:00,29.8,29.3,29.95,West,269,0.0,0.0,98,0.00,,,0.00,Wunderground v.1.15,2013-01-17 12:15:00,
2013-01-17 07:25:00,29.8,29.1,29.94,ESE,120,0.0,1.0,97,0.00,,,0.00,Wunderground v.1.15,2013-01-17 12:25:00,
2013-01-17 07:35:00,30.2,29.7,29.97,South,170,0.0,1.0,98,0.00,,,0.00,Wunderground v.1.15,2013-01-17 12:35:00,
2013-01-17 07:45:00,30.9,30.4,29.97,SE,139,0.0,0.0,98,0.00,,,0.00,Wunderground v.1.15,2013-01-17 12:45:00,
2013-01-17 07:55:00,31.9,31.4,29.98,West,280,0.0,1.0,98,0.00,,,0.00,Wunderground v.1.15,2013-01-17 12:55:00,
2013-01-17 08:00:00,31.8,31.0,29.98,West,281,0.0,0.0,97,0.00,,,0.00,Wunderground v.1.15,2013-01-17 13:00:00,
2013-01-17 08:10:00,33.0,32.2,29.98,SSW,207,0.0,1.0,97,0.00,,,0.00,Wunderground v.1.15,2013-01-17 13:10:00,
2013-01-17 08:15:00,33.4,32.4,29.98,SSE,158,0.0,1.0,96,0.00,,,0.00,Wunderground v.1.15,2013-01-17 13:15:00,
2013-01-17 08:25:00,33.9,32.4,29.99,SW,226,0.0,1.0,94,0.00,,,0.00,Wunderground v.1.15,2013-01-17 13:25:00,
2013-01-17 08:30:00,34.1,32.3,30.00,SW,214,0.0,0.0,93,0.00,,,0.00,Wunderground v.1.15,2013-01-17 13:30:00,
2013-01-17 08:35:00,34.4,32.0,30.00,SE,129,1.0,1.0,91,0.00,,,0.00,Wunderground v.1.15,2013-01-17 13:35:00,
2013-01-17 08:45:00,35.1,32.2,30.00,SW,221,0.0,1.0,89,0.00,,,0.00,Wunderground v.1.15,2013-01-17 13:45:00,
2013-01-17 08:50:00,35.6,32.7,30.00,SW,236,1.0,1.0,89,0.00,,,0.00,Wunderground v.1.15,2013-01-17 13:50:00,
2013-01-17 09:00:00,36.5,32.7,30.00,WSW,247,1.0,1.0,86,0.00,,,0.00,Wunderground v.1.15,2013-01-17 14:00:00,
2013-01-17 09:10:00,36.5,32.4,30.00,South,169,2.0,2.0,85,0.00,,,0.00,Wunderground v.1.15,2013-01-17 14:10:00,
2013-01-17 09:20:00,36.6,31.9,30.00,NW,311,1.0,1.0,83,0.00,,,0.00,Wunderground v.1.15,2013-01-17 14:20:00,
2013-01-17 09:30:00,36.3,31.6,30.01,SW,233,1.0,1.0,83,0.00,,,0.00,Wunderground v.1.15,2013-01-17 14:30:00,
2013-01-17 09:40:00,36.1,31.4,30.02,WSW,250,0.0,0.0,83,0.00,,,0.00,Wunderground v.1.15,2013-01-17 14:40:00,
2013-01-17 09:45:00,36.1,31.4,30.02,SW,225,1.0,1.0,83,0.00,,,0.00,Wunderground v.1.15,2013-01-17 14:45:00,
2013-01-17 09:55:00,36.3,31.3,30.03,South,184,0.0,1.0,82,0.00,,,0.00,Wunderground v.1.15,2013-01-17 14:55:00,
2013-01-17 10:05:00,36.6,31.3,30.03,WSW,253,1.0,1.0,81,0.00,,,0.01,Wunderground v.1.15,2013-01-17 15:05:00,
2013-01-17 10:15:00,36.9,31.3,30.03,East,94,2.0,3.0,80,0.00,,,0.01,Wunderground v.1.15,2013-01-17 15:15:00,
2013-01-17 10:25:00,37.8,32.2,30.03,SE,127,1.0,2.0,80,0.00,,,0.01,Wunderground v.1.15,2013-01-17 15:25:00,
2013-01-17 10:35:00,38.4,32.1,30.02,WNW,282,1.0,1.0,78,0.00,,,0.01,Wunderground v.1.15,2013-01-17 15:35:00,
2013-01-17 10:45:00,38.6,32.3,30.02,North,352,1.0,1.0,78,0.00,,,0.02,Wunderground v.1.15,2013-01-17 15:45:00,
2013-01-17 10:55:00,39.0,32.1,30.01,NW,316,1.0,2.0,76,0.00,,,0.02,Wunderground v.1.15,2013-01-17 15:55:00,
2013-01-17 11:00:00,39.0,32.1,30.00,SW,218,2.0,2.0,76,0.00,,,0.03,Wunderground v.1.15,2013-01-17 16:00:00,
2013-01-17 11:10:00,39.4,31.8,30.00,NW,307,1.0,4.0,74,0.05,,,0.04,Wunderground v.1.15,2013-01-17 16:10:00,
2013-01-17 11:20:00,38.6,31.4,30.01,WNW,287,2.0,2.0,75,0.05,,,0.04,Wunderground v.1.15,2013-01-17 16:20:00,
2013-01-17 11:30:00,38.4,30.8,30.01,WNW,283,3.0,3.0,74,0.00,,,0.04,Wunderground v.1.15,2013-01-17 16:30:00,
2013-01-17 11:40:00,38.9,31.3,30.00,SSW,203,2.0,2.0,74,0.00,,,0.05,Wunderground v.1.15,2013-01-17 16:40:00,
2013-01-17 11:50:00,38.9,31.3,30.00,WNW,293,3.0,3.0,74,0.00,,,0.05,Wunderground v.1.15,2013-01-17 16:50:00,
2013-01-17 11:55:00,39.4,31.5,30.01,WNW,288,2.0,3.0,73,0.00,,,0.06,Wunderground v.1.15,2013-01-17 16:55:00,
2013-01-17 12:05:00,39.4,31.1,30.00,WNW,283,3.0,3.0,72,0.00,,,0.06,Wunderground v.1.15,2013-01-17 17:05:00,
2013-01-17 12:15:00,39.5,30.9,30.00,West,262,4.0,5.0,71,0.00,,,0.07,Wunderground v.1.15,2013-01-17 17:15:00,
2013-01-17 12:25:00,39.6,30.6,30.00,WNW,283,4.0,8.0,70,0.08,,,0.09,Wunderground v.1.15,2013-01-17 17:25:00,
2013-01-17 12:35:00,39.5,30.5,30.00,NW,316,4.0,6.0,70,0.06,,,0.10,Wunderground v.1.15,2013-01-17 17:35:00,
2013-01-17 12:40:00,39.6,31.0,30.00,NW,320,4.0,4.0,71,0.06,,,0.10,Wunderground v.1.15,2013-01-17 17:40:00,
2013-01-17 12:50:00,40.2,31.2,30.00,WNW,287,3.0,3.0,70,0.06,,,0.11,Wunderground v.1.15,2013-01-17 17:50:00,
2013-01-17 13:00:00,40.5,30.8,30.01,NW,304,4.0,4.0,68,0.06,,,0.12,Wunderground v.1.15,2013-01-17 18:00:00,
2013-01-17 13:10:00,40.9,30.8,30.01,NNW,340,3.0,3.0,67,0.06,,,0.13,Wunderground v.1.15,2013-01-17 18:10:00,
2013-01-17 13:20:00,41.0,29.7,30.01,NNW,330,3.0,5.0,64,0.06,,,0.14,Wunderground v.1.15,2013-01-17 18:20:00,
2013-01-17 13:30:00,41.1,29.8,30.01,NW,312,4.0,4.0,64,0.06,,,0.15,Wunderground v.1.15,2013-01-17 18:30:00,
2013-01-17 13:35:00,40.9,29.3,30.01,WNW,297,5.0,5.0,63,0.06,,,0.16,Wunderground v.1.15,2013-01-17 18:35:00,
2013-01-17 13:45:00,40.9,30.0,30.01,NNW,340,3.0,6.0,65,0.05,,,0.16,Wunderground v.1.15,2013-01-17 18:45:00,
2013-01-17 13:55:00,40.6,29.7,30.01,WNW,300,3.0,5.0,65,0.04,,,0.17,Wunderground v.1.15,2013-01-17 18:55:00,
2013-01-17 14:05:00,40.4,29.9,30.02,WNW,293,4.0,5.0,66,0.04,,,0.18,Wunderground v.1.15,2013-01-17 19:05:00,
2013-01-17 14:15:00,39.9,29.8,30.02,NW,309,4.0,4.0,67,0.04,,,0.18,Wunderground v.1.15,2013-01-17 19:15:00,
2013-01-17 14:25:00,39.7,30.4,30.03,West,277,3.0,4.0,69,0.04,,,0.19,Wunderground v.1.15,2013-01-17 19:25:00,
2013-01-17 14:30:00,39.8,30.1,30.03,NW,309,1.0,2.0,68,0.04,,,0.19,Wunderground v.1.15,2013-01-17 19:30:00,
2013-01-17 14:40:00,39.7,29.6,30.03,NW,309,3.0,3.0,67,0.00,,,0.19,Wunderground v.1.15,2013-01-17 19:40:00,
2013-01-17 14:50:00,39.9,29.8,30.02,WNW,294,3.0,3.0,67,0.00,,,0.20,Wunderground v.1.15,2013-01-17 19:50:00,
2013-01-17 15:00:00,39.9,29.5,30.02,NW,314,3.0,3.0,66,0.00,,,0.20,Wunderground v.1.15,2013-01-17 20:00:00,
2013-01-17 15:10:00,39.6,29.2,30.02,NW,312,3.0,3.0,66,0.00,,,0.20,Wunderground v.1.15,2013-01-17 20:10:00,
2013-01-17 15:20:00,39.4,29.0,30.02,WNW,292,2.0,2.0,66,0.00,,,0.21,Wunderground v.1.15,2013-01-17 20:20:00,
2013-01-17 15:30:00,39.2,29.9,30.03,WNW,295,2.0,2.0,69,0.00,,,0.21,Wunderground v.1.15,2013-01-17 20:30:00,
2013-01-17 15:40:00,39.0,29.7,30.03,WNW,295,2.0,2.0,69,0.00,,,0.21,Wunderground v.1.15,2013-01-17 20:40:00,
2013-01-17 15:50:00,38.7,29.8,30.03,WNW,295,3.0,3.0,70,0.00,,,0.21,Wunderground v.1.15,2013-01-17 20:50:00,
2013-01-17 15:55:00,38.5,29.9,30.03,NW,304,3.0,3.0,71,0.00,,,0.21,Wunderground v.1.15,2013-01-17 20:55:00,
2013-01-17 16:05:00,38.1,29.9,30.04,WNW,291,2.0,3.0,72,0.00,,,0.22,Wunderground v.1.15,2013-01-17 21:05:00,
2013-01-17 16:15:00,37.8,29.9,30.05,WNW,289,1.0,2.0,73,0.00,,,0.22,Wunderground v.1.15,2013-01-17 21:15:00,
2013-01-17 16:20:00,37.8,29.9,30.05,WNW,287,1.0,1.0,73,0.00,,,0.22,Wunderground v.1.15,2013-01-17 21:20:00,
2013-01-17 16:30:00,37.7,29.5,30.05,West,281,1.0,1.0,72,0.00,,,0.22,Wunderground v.1.15,2013-01-17 21:30:00,
2013-01-17 16:40:00,37.7,29.1,30.05,WNW,288,2.0,2.0,71,0.00,,,0.22,Wunderground v.1.15,2013-01-17 21:40:00,
2013-01-17 16:50:00,37.6,28.7,30.06,NW,326,3.0,3.0,70,0.00,,,0.22,Wunderground v.1.15,2013-01-17 21:50:00,
2013-01-17 17:00:00,37.5,28.6,30.06,WNW,282,2.0,2.0,70,0.00,,,0.22,Wunderground v.1.15,2013-01-17 22:00:00,
2013-01-17 17:05:00,37.3,29.1,30.06,WNW,284,1.0,2.0,72,0.00,,,0.22,Wunderground v.1.15,2013-01-17 22:05:00,
2013-01-17 17:15:00,37.2,28.7,30.05,NW,318,1.0,1.0,71,0.00,,,0.22,Wunderground v.1.15,2013-01-17 22:15:00,
2013-01-17 17:20:00,37.1,28.9,30.06,NW,312,0.0,2.0,72,0.00,,,0.22,Wunderground v.1.15,2013-01-17 22:20:00,
2013-01-17 17:30:00,37.0,29.1,30.07,WNW,287,1.0,1.0,73,0.00,,,0.22,Wunderground v.1.15,2013-01-17 22:30:00,
2013-01-17 17:40:00,36.6,29.4,30.07,WNW,285,0.0,0.0,75,0.00,,,0.22,Wunderground v.1.15,2013-01-17 22:40:00,
2013-01-17 17:50:00,36.5,29.0,30.08,WNW,294,0.0,2.0,74,0.00,,,0.23,Wunderground v.1.15,2013-01-17 22:50:00,
2013-01-17 18:00:00,36.5,29.3,30.08,NNW,338,1.0,1.0,75,0.00,,,0.23,Wunderground v.1.15,2013-01-17 23:00:00,
2013-01-17 18:10:00,36.2,29.4,30.09,West,281,1.0,1.0,76,0.00,,,0.23,Wunderground v.1.15,2013-01-17 23:10:00,
2013-01-17 18:15:00,36.0,29.2,30.09,WNW,291,1.0,1.0,76,0.00,,,0.23,Wunderground v.1.15,2013-01-17 23:15:00,
2013-01-17 18:25:00,36.0,28.2,30.07,NW,326,2.0,4.0,73,0.00,,,0.23,Wunderground v.1.15,2013-01-17 23:25:00,
2013-01-17 18:35:00,35.7,27.6,30.08,WNW,294,4.0,4.0,72,0.00,,,0.23,Wunderground v.1.15,2013-01-17 23:35:00,
2013-01-17 18:45:00,35.4,26.6,30.08,NNW,328,4.0,4.0,70,0.00,,,0.23,Wunderground v.1.15,2013-01-17 23:45:00,
2013-01-17 18:55:00,35.3,25.8,30.09,WNW,300,3.0,3.0,68,0.00,,,0.23,Wunderground v.1.15,2013-01-17 23:55:00,
2013-01-17 19:00:00,35.2,25.7,30.09,WNW,294,3.0,3.0,68,0.00,,,0.23,Wunderground v.1.15,2013-01-18 00:00:00,
2013-01-17 19:05:00,35.1,25.9,30.08,NW,306,3.0,3.0,69,0.00,,,0.23,Wunderground v.1.15,2013-01-18 00:05:00,
2013-01-17 19:15:00,34.8,25.7,30.09,NW,316,2.0,3.0,69,0.00,,,0.23,Wunderground v.1.15,2013-01-18 00:15:00,
2013-01-17 19:20:00,34.7,25.2,30.08,WNW,293,3.0,3.0,68,0.00,,,0.23,Wunderground v.1.15,2013-01-18 00:20:00,
2013-01-17 19:30:00,34.5,25.0,30.09,WNW,300,3.0,4.0,68,0.00,,,0.23,Wunderground v.1.15,2013-01-18 00:30:00,
2013-01-17 19:40:00,34.4,24.6,30.09,NW,318,3.0,3.0,67,0.00,,,0.23,Wunderground v.1.15,2013-01-18 00:40:00,
2013-01-17 19:50:00,34.1,23.6,30.08,NW,311,4.0,5.0,65,0.00,,,0.23,Wunderground v.1.15,2013-01-18 00:50:00,
2013-01-17 20:00:00,33.9,23.7,30.08,NNW,345,4.0,4.0,66,0.00,,,0.23,Wunderground v.1.15,2013-01-18 01:00:00,
2013-01-17 20:10:00,33.7,23.9,30.08,WNW,291,4.0,4.0,67,0.00,,,0.23,Wunderground v.1.15,2013-01-18 01:10:00,
2013-01-17 20:15:00,33.5,23.7,30.08,NW,305,5.0,5.0,67,0.00,,,0.23,Wunderground v.1.15,2013-01-18 01:15:00,
2013-01-17 20:25:00,33.1,22.6,30.08,WNW,293,5.0,7.0,65,0.00,,,0.23,Wunderground v.1.15,2013-01-18 01:25:00,
2013-01-17 20:30:00,33.0,22.5,30.09,WNW,295,4.0,4.0,65,0.00,,,0.23,Wunderground v.1.15,2013-01-18 01:30:00,
2013-01-17 20:40:00,32.7,22.6,30.09,WNW,293,4.0,5.0,66,0.00,,,0.23,Wunderground v.1.15,2013-01-18 01:40:00,
2013-01-17 20:50:00,32.4,21.9,30.09,WNW,299,5.0,5.0,65,0.00,,,0.23,Wunderground v.1.15,2013-01-18 01:50:00,
2013-01-17 21:00:00,32.2,21.0,30.09,WNW,301,4.0,4.0,63,0.00,,,0.23,Wunderground v.1.15,2013-01-18 02:00:00,
2013-01-17 21:10:00,32.0,21.6,30.09,NW,309,4.0,4.0,65,0.00,,,0.23,Wunderground v.1.15,2013-01-18 02:10:00,
2013-01-17 21:15:00,32.0,21.2,30.08,WNW,287,3.0,4.0,64,0.00,,,0.23,Wunderground v.1.15,2013-01-18 02:15:00,
2013-01-17 21:25:00,31.8,21.0,30.07,NW,309,3.0,6.0,64,0.00,,,0.23,Wunderground v.1.15,2013-01-18 02:25:00,
2013-01-17 21:35:00,31.6,21.2,30.06,NNW,342,4.0,5.0,65,0.00,,,0.23,Wunderground v.1.15,2013-01-18 02:35:00,
2013-01-17 21:45:00,31.4,19.5,30.07,West,264,5.0,7.0,61,0.00,,,0.23,Wunderground v.1.15,2013-01-18 02:45:00,
2013-01-17 21:55:00,31.1,19.6,30.07,WNW,300,5.0,7.0,62,0.00,,,0.23,Wunderground v.1.15,2013-01-18 02:55:00,
2013-01-17 22:05:00,31.0,20.2,30.08,NNE,27,3.0,4.0,64,0.00,,,0.23,Wunderground v.1.15,2013-01-18 03:05:00,
2013-01-17 22:15:00,30.8,18.9,30.07,WNW,287,4.0,5.0,61,0.00,,,0.23,Wunderground v.1.15,2013-01-18 03:15:00,
2013-01-17 22:25:00,30.6,18.3,30.07,NW,315,4.0,5.0,60,0.00,,,0.23,Wunderground v.1.15,2013-01-18 03:25:00,
2013-01-17 22:35:00,30.5,19.0,30.04,NW,309,4.0,5.0,62,0.00,,,0.23,Wunderground v.1.15,2013-01-18 03:35:00,
2013-01-17 22:45:00,30.4,18.9,30.03,WNW,290,4.0,4.0,62,0.00,,,0.23,Wunderground v.1.15,2013-01-18 03:45:00,
2013-01-17 22:55:00,30.2,18.7,30.02,WNW,294,4.0,4.0,62,0.00,,,0.23,Wunderground v.1.15,2013-01-18 03:55:00,
2013-01-17 23:05:00,30.0,18.5,30.02,WNW,289,4.0,4.0,62,0.00,,,0.23,Wunderground v.1.15,2013-01-18 04:05:00,
2013-01-17 23:15:00,30.0,17.8,30.04,West,281,3.0,4.0,60,0.00,,,0.23,Wunderground v.1.15,2013-01-18 04:15:00,
2013-01-17 23:20:00,29.9,18.5,30.04,NW,316,3.0,3.0,62,0.00,,,0.23,Wunderground v.1.15,2013-01-18 04:20:00,
2013-01-17 23:30:00,29.9,18.5,30.04,WNW,293,3.0,3.0,62,0.00,,,0.23,Wunderground v.1.15,2013-01-18 04:30:00,
2013-01-17 23:35:00,29.9,18.8,30.04,NW,319,3.0,3.0,63,0.00,,,0.23,Wunderground v.1.15,2013-01-18 04:35:00,
2013-01-17 23:45:00,29.8,18.7,30.05,WNW,293,3.0,4.0,63,0.00,,,0.23,Wunderground v.1.15,2013-01-18 04:45:00,
2013-01-17 23:55:00,29.7,17.9,30.05,WNW,287,3.0,4.0,61,0.00,,,0.23,Wunderground v.1.15,2013-01-18 04:55:00,